N0JVW-13 Weather Reports


time (UTC)temp
C
wind
direction
speed
KPH
gust
KPH
rain 1hr
cm
rain 24hr
cm
rain mn
cm
humidity
%
barometer
mb
20260505054100 19 34 4.8 12.9 0.00 0.00 0.00 56 1004.0
20260505053535 20 32 3.2 11.3 0.00 0.00 0.00 55 1003.7
20260505053011 20 24 1.6 19.3 0.00 0.00 0.00 56 1003.4
20260505052551 20 66 8.0 19.3 0.00 0.00 0.00 60 1003.0
20260505052027 20 21 0.0 6.4 0.00 0.00 0.00 68 1002.7
20260505051503 20 6 0.0 6.4 0.00 0.00 0.00 71 1002.5
20260505051042 20 357 0.0 6.4 0.00 0.00 0.00 71 1002.3
20260505050521 20 16 0.0 6.4 0.00 0.00 0.00 72 1002.3
20260505041546 21 157 0.0 4.8 0.00 0.00 0.00 70 1001.8
20260505041014 21 139 0.0 6.4 0.00 0.00 0.00 70 1002.0
20260505040555 21 171 0.0 6.4 0.00 0.00 0.00 70 1002.0
20260505040031 21 156 0.0 6.4 0.00 0.00 0.00 70 1002.1
20260505035507 21 164 1.6 6.4 0.00 0.00 0.00 70 1002.1
20260505035052 21 148 0.0 4.8 0.00 0.00 0.00 70 1002.2
20260505034523 21 153 0.0 4.8 0.00 0.00 0.00 70 1002.2
20260505034104 21 163 0.0 3.2 0.00 0.00 0.00 70 1002.1
20260505033540 21 158 0.0 3.2 0.00 0.00 0.00 70 1002.2
20260505033018 21 167 0.0 3.2 0.00 0.00 0.00 70 1002.2
20260505032602 21 199 0.0 3.2 0.00 0.00 0.00 71 1002.2
20260505032033 21 168 0.0 4.8 0.00 0.00 0.00 71 1002.1
20260505031510 21 154 0.0 4.8 0.00 0.00 0.00 71 1002.1
20260505031054 21 160 0.0 4.8 0.00 0.00 0.00 71 1002.1
20260505030527 21 160 0.0 3.2 0.00 0.00 0.00 70 1002.0
20260505030003 22 145 0.0 1.6 0.00 0.00 0.00 70 1002.0
20260505025543 22 160 0.0 0.0 0.00 0.00 0.00 70 1002.0
20260505025021 22 160 0.0 3.2 0.00 0.00 0.00 69 1001.9
20260505024601 22 163 0.0 3.2 0.00 0.00 0.00 69 1001.8
20260505024037 22 145 0.0 1.6 0.00 0.00 0.00 68 1001.8
20260505023513 22 117 0.0 1.6 0.00 0.00 0.00 67 1001.7
20260505023101 22 111 0.0 1.6 0.00 0.00 0.00 66 1001.6
20260505022532 22 165 0.0 0.0 0.00 0.00 0.00 66 1001.5
20260505022006 22 165 0.0 0.0 0.00 0.00 0.00 66 1001.4
20260505021548 22 165 0.0 0.0 0.00 0.00 0.00 65 1001.3
20260505021023 22 165 0.0 0.0 0.00 0.00 0.00 65 1001.3
20260505020604 22 165 0.0 0.0 0.00 0.00 0.00 65 1001.2
20260505020039 22 165 0.0 0.0 0.00 0.00 0.00 65 1001.1
20260505015515 22 165 0.0 0.0 0.00 0.00 0.00 65 1001.0
20260505015056 22 165 0.0 0.0 0.00 0.00 0.00 64 1000.9
20260505014537 22 165 0.0 0.0 0.00 0.00 0.00 64 1000.8
20260505014008 22 165 0.0 0.0 0.00 0.00 0.00 63 1000.8
20260505013548 22 165 0.0 0.0 0.00 0.00 0.00 63 1000.7
20260505013029 22 165 0.0 0.0 0.00 0.00 0.00 62 1000.6
20260505012502 22 165 0.0 0.0 0.00 0.00 0.00 61 1000.6
20260505012042 23 165 0.0 0.0 0.00 0.00 0.00 60 1000.5
20260505011517 23 165 0.0 0.0 0.00 0.00 0.00 60 1000.4
20260505011058 23 165 0.0 0.0 0.00 0.00 0.00 59 1000.3
20260505010532 23 165 0.0 0.0 0.00 0.00 0.00 58 1000.3
20260505010009 23 165 0.0 0.0 0.00 0.00 0.00 58 1000.2
20260505005550 23 165 0.0 0.0 0.00 0.00 0.00 57 1000.1
20260505005028 24 165 0.0 0.0 0.00 0.00 0.00 57 1000.1
20260505004504 24 165 0.0 0.0 0.00 0.00 0.00 57 1000.1
20260505004044 24 165 0.0 0.0 0.00 0.00 0.00 56 1000.0
20260505003525 25 165 0.0 0.0 0.00 0.00 0.00 56 1000.0
20260505003102 25 165 0.0 0.0 0.00 0.00 0.00 55 999.9
20260505002541 25 165 0.0 0.0 0.00 0.00 0.00 55 999.9
20260505002014 25 165 0.0 0.0 0.00 0.00 0.00 54 999.9
20260505001557 25 165 0.0 0.0 0.00 0.00 0.00 53 999.9
20260505001032 25 295 0.0 0.0 0.00 0.00 0.00 52 999.9
20260505000505 25 295 0.0 1.6 0.00 0.00 0.00 51 999.9
20260505000054 25 295 0.0 1.6 0.00 0.00 0.00 51 999.9
20260504235523 26 295 0.0 1.6 0.00 0.00 0.00 50 999.8
20260504235105 26 295 0.0 1.6 0.00 0.00 0.00 49 999.8
20260504234546 26 295 0.0 4.8 0.00 0.00 0.00 48 999.8
20260504234017 26 153 0.0 1.6 0.00 0.00 0.00 51 999.8
20260504233557 26 136 0.0 3.2 0.00 0.00 0.00 50 999.9
20260504233035 26 168 0.0 3.2 0.00 0.00 0.00 50 999.8
20260504232511 26 307 0.0 3.2 0.00 0.00 0.00 49 999.8
20260504232051 27 319 0.0 4.8 0.00 0.00 0.00 47 999.8
20260504231535 26 117 0.0 4.8 0.00 0.00 0.00 47 999.9
20260504231003 26 117 0.0 1.6 0.00 0.00 0.00 48 999.9
20260504230545 26 117 0.0 1.6 0.00 0.00 0.00 48 1000.0
20260504230021 26 117 0.0 1.6 0.00 0.00 0.00 48 1000.0
20260504225602 26 117 0.0 1.6 0.00 0.00 0.00 49 1000.0
20260504225037 26 117 0.0 1.6 0.00 0.00 0.00 49 1000.0
20260504224517 26 117 0.0 0.0 0.00 0.00 0.00 49 1000.0
20260504224058 26 117 0.0 0.0 0.00 0.00 0.00 49 1000.0
20260504223534 26 117 0.0 1.6 0.00 0.00 0.00 48 1000.0
20260504223008 26 117 0.0 3.2 0.00 0.00 0.00 48 1000.0
20260504222548 26 117 0.0 3.2 0.00 0.00 0.00 47 1000.0
20260504222025 26 117 0.0 3.2 0.00 0.00 0.00 47 1000.1
20260504221610 26 117 0.0 3.2 0.00 0.00 0.00 46 1000.2
20260504221040 26 334 0.0 3.2 0.00 0.00 0.00 46 1000.2
20260504220516 26 298 0.0 3.2 0.00 0.00 0.00 46 1000.1
20260504220057 26 283 0.0 3.2 0.00 0.00 0.00 45 1000.2
20260504215534 26 275 0.0 3.2 0.00 0.00 0.00 46 1000.2
20260504215009 26 275 0.0 3.2 0.00 0.00 0.00 46 1000.2
20260504214549 26 280 0.0 3.2 0.00 0.00 0.00 45 1000.3
20260504214028 26 264 0.0 3.2 0.00 0.00 0.00 45 1000.3
20260504213503 27 131 0.0 4.8 0.00 0.00 0.00 45 1000.3
20260504213043 27 118 0.0 6.4 0.00 0.00 0.00 45 1000.3
20260504212519 27 176 0.0 9.7 0.00 0.00 0.00 45 1000.4
20260504212100 27 210 0.0 9.7 0.00 0.00 0.00 46 1000.3
20260504211544 27 203 0.0 8.0 0.00 0.00 0.00 45 1000.4
20260504211012 27 218 1.6 8.0 0.00 0.00 0.00 46 1000.3
20260504210553 27 126 1.6 8.0 0.00 0.00 0.00 45 1000.4
20260504210047 27 129 1.6 6.4 0.00 0.00 0.00 44 1000.4
20260504205506 27 146 0.0 3.2 0.00 0.00 0.00 46 1000.4
20260504205047 27 224 0.0 4.8 0.00 0.00 0.00 46 1000.4
20260504204524 27 274 0.0 3.2 0.00 0.00 0.00 44 1000.4
20260504204108 27 174 0.0 3.2 0.00 0.00 0.00 45 1000.5
20260504203541 27 269 0.0 3.2 0.00 0.00 0.00 45 1000.6
20260504203023 27 181 0.0 3.2 0.00 0.00 0.00 46 1000.7
20260504202559 27 283 0.0 3.2 0.00 0.00 0.00 46 1000.8
20260504202036 26 172 0.0 4.8 0.00 0.00 0.00 47 1000.9
20260504201511 26 321 0.0 6.4 0.00 0.00 0.00 47 1000.8
20260504201054 26 278 0.0 6.4 0.00 0.00 0.00 45 1000.7
20260504200529 26 167 0.0 6.4 0.00 0.00 0.00 47 1000.8
20260504200012 26 295 0.0 4.8 0.00 0.00 0.00 45 1000.9
20260504195554 26 274 0.0 4.8 0.00 0.00 0.00 45 1000.9
20260504195029 26 158 0.0 4.8 0.00 0.00 0.00 46 1000.9
20260504194508 26 159 0.0 4.8 0.00 0.00 0.00 46 1000.9
20260504194043 26 252 0.0 3.2 0.00 0.00 0.00 46 1000.9
20260504193518 26 284 0.0 6.4 0.00 0.00 0.00 48 1000.9
20260504193100 26 269 0.0 6.4 0.00 0.00 0.00 46 1001.1
20260504192535 26 270 1.6 6.4 0.00 0.00 0.00 46 1001.1
20260504192012 26 293 0.0 4.8 0.00 0.00 0.00 49 1001.1
20260504191554 25 250 0.0 4.8 0.00 0.00 0.00 47 1001.0
20260504191029 25 277 1.6 4.8 0.00 0.00 0.00 47 1001.0
20260504190505 25 297 0.0 6.4 0.00 0.00 0.00 49 1001.2
20260504190103 25 169 0.0 6.4 0.00 0.00 0.00 50 1001.1
20260504185525 25 177 0.0 6.4 0.00 0.00 0.00 49 1001.2
20260504185103 25 148 0.0 6.4 0.00 0.00 0.00 46 1001.2
20260504184541 25 281 1.6 9.7 0.00 0.00 0.00 47 1001.3
20260504184014 25 195 0.0 9.7 0.00 0.00 0.00 49 1001.4
20260504183555 25 150 0.0 6.4 0.00 0.00 0.00 51 1001.3
20260504183031 25 144 0.0 6.4 0.00 0.00 0.00 51 1001.4
20260504182509 25 112 0.0 8.0 0.00 0.00 0.00 51 1001.4
20260504182048 25 153 3.2 8.0 0.00 0.00 0.00 50 1001.3
20260504181525 25 195 0.0 6.4 0.00 0.00 0.00 48 1001.4
20260504181106 25 127 1.6 4.8 0.00 0.00 0.00 52 1001.4
20260504180541 25 173 0.0 8.0 0.00 0.00 0.00 50 1001.5
20260504180020 25 183 0.0 8.0 0.00 0.00 0.00 49 1001.6
20260504175557 25 198 0.0 8.0 0.00 0.00 0.00 49 1001.5
20260504175036 25 157 0.0 4.8 0.00 0.00 0.00 49 1001.6
20260504174509 24 319 0.0 4.8 0.00 0.00 0.00 53 1001.7
20260504174052 24 51 0.0 3.2 0.00 0.00 0.00 52 1001.8
20260504173526 24 93 0.0 6.4 0.00 0.00 0.00 51 1001.9
20260504173008 24 93 1.6 8.0 0.00 0.00 0.00 50 1001.9
20260504172544 24 157 0.0 8.0 0.00 0.00 0.00 53 1001.9
20260504172020 23 314 0.0 6.4 0.00 0.00 0.00 52 1002.0
20260504171602 23 302 1.6 4.8 0.00 0.00 0.00 49 1002.0
20260504171036 23 259 0.0 3.2 0.00 0.00 0.00 52 1002.0
20260504170513 23 173 0.0 4.8 0.00 0.00 0.00 53 1002.0
20260504151043 21 278 0.0 6.4 0.00 0.00 0.00 57 1002.6
20260504150520 20 229 1.6 8.0 0.00 0.00 0.00 55 1002.6
20260504141015 19 164 0.0 8.0 0.00 0.00 0.00 59 1002.8
20260504140556 19 214 0.0 8.0 0.00 0.00 0.00 60 1002.8
20260504130527 17 155 0.0 3.2 0.00 0.00 0.00 62 1002.9
20260504110538 17 122 0.0 1.6 0.00 0.00 0.00 59 1003.5
20260504100510 18 235 0.0 4.8 0.00 0.00 0.00 56 1003.5
20260504081604 16 257 0.0 0.0 0.00 0.00 0.00 66 1004.4
20260504081040 16 257 0.0 0.0 0.00 0.00 0.00 66 1004.4
20260504080516 16 257 0.0 0.0 0.00 0.00 0.00 66 1004.5
20260504060103 18 257 0.0 3.2 0.00 0.00 0.00 60 1006.4